Previsão horária em Cauquenes

Hoje, 25 Julho, Domingo

Tempo Temperatura Precipitação Vento Pressão Humidade
00:00 +8°C° 0 mm 6 m/s 749 mmHg 83%
01:00 +8°C° 0 mm 6 m/s 749 mmHg 85%
02:00 +8°C° 1.1 mm 6 m/s 748 mmHg 85%
03:00 +8°C° 1.1 mm 6 m/s 748 mmHg 86%
04:00 +9°C° 1.1 mm 6 m/s 747 mmHg 86%
05:00 +9°C° 2.1 mm 6 m/s 747 mmHg 88%
06:00 +8°C° 2.1 mm 5 m/s 748 mmHg 90%
07:00 +8°C° 2.1 mm 4 m/s 748 mmHg 92%
08:00 +10°C° 0.2 mm 4 m/s 748 mmHg 89%
09:00 +11°C° 0.2 mm 4 m/s 749 mmHg 86%
10:00 +10°C° 0.2 mm 5 m/s 749 mmHg 83%
11:00 +11°C° 0.4 mm 4 m/s 749 mmHg 83%
12:00 +12°C° 0.4 mm 4 m/s 749 mmHg 82%
13:00 +12°C° 0.4 mm 4 m/s 749 mmHg 81%
14:00 +12°C° 0.3 mm 4 m/s 749 mmHg 81%
15:00 +11°C° 0.3 mm 3 m/s 749 mmHg 82%
16:00 +11°C° 0.3 mm 3 m/s 749 mmHg 82%
17:00 +10°C° 0.1 mm 2 m/s 750 mmHg 86%
18:00 +9°C° 0.1 mm 2 m/s 751 mmHg 89%
19:00 +9°C° 0.1 mm 1 m/s 751 mmHg 93%
20:00 +10°C° 0 mm 1 m/s 752 mmHg 92%
21:00 +10°C° 0 mm 1 m/s 752 mmHg 90%
22:00 +10°C° 0 mm 1 m/s 752 mmHg 89%
23:00 +10°C° 0 mm 1 m/s 753 mmHg 88%

Amanhã, 26 Julho, Segunda-feira

Tempo Temperatura Precipitação Vento Pressão Humidade
00:00 +10°C° 0 mm 1 m/s 753 mmHg 88%
01:00 +10°C° 0 mm 1 m/s 754 mmHg 88%
02:00 +9°C° 0 mm 1 m/s 754 mmHg 90%
03:00 +8°C° 0 mm 2 m/s 754 mmHg 92%
04:00 +7°C° 0 mm 3 m/s 755 mmHg 95%
05:00 +7°C° 0 mm 3 m/s 755 mmHg 93%
06:00 +5°C° 0 mm 3 m/s 756 mmHg 92%
07:00 +5°C° 0 mm 3 m/s 756 mmHg 90%
08:00 +7°C° 0 mm 3 m/s 756 mmHg 84%
09:00 +7°C° 0 mm 4 m/s 757 mmHg 78%
10:00 +7°C° 0 mm 4 m/s 757 mmHg 73%
11:00 +8°C° 0 mm 4 m/s 757 mmHg 67%
12:00 +9°C° 0 mm 5 m/s 757 mmHg 61%
13:00 +10°C° 0 mm 5 m/s 757 mmHg 56%
14:00 +9°C° 0 mm 5 m/s 757 mmHg 57%
15:00 +9°C° 0 mm 5 m/s 757 mmHg 58%
16:00 +8°C° 0 mm 5 m/s 756 mmHg 59%
17:00 +7°C° 0 mm 5 m/s 757 mmHg 64%
18:00 +5°C° 0 mm 5 m/s 757 mmHg 68%
19:00 +4°C° 0 mm 4 m/s 757 mmHg 73%
20:00 +3°C° 0 mm 4 m/s 757 mmHg 75%
21:00 +3°C° 0 mm 4 m/s 757 mmHg 77%
22:00 +1°C° 0 mm 4 m/s 757 mmHg 80%
23:00 +2°C° 0 mm 3 m/s 757 mmHg 82%

Depois de amanhã, 27 Julho, Terça-feira

Tempo Temperatura Precipitação Vento Pressão Humidade
00:00 +2°C° 0 mm 3 m/s 756 mmHg 84%
01:00 +1°C° 0 mm 3 m/s 756 mmHg 87%
02:00 +1°C° 0 mm 3 m/s 756 mmHg 87%
03:00 +1°C° 0 mm 3 m/s 755 mmHg 88%
04:00 +1°C° 0 mm 3 m/s 755 mmHg 88%
05:00 +1°C° 0 mm 3 m/s 755 mmHg 88%
06:00 +1°C° 0 mm 3 m/s 755 mmHg 87%
07:00 0°C° 0 mm 3 m/s 755 mmHg 87%
08:00 +1°C° 0 mm 4 m/s 755 mmHg 79%
09:00 +4°C° 0 mm 4 m/s 755 mmHg 71%
10:00 +6°C° 0 mm 5 m/s 755 mmHg 62%
11:00 +8°C° 0 mm 5 m/s 754 mmHg 59%
12:00 +9°C° 0 mm 5 m/s 753 mmHg 55%
13:00 +11°C° 0 mm 4 m/s 753 mmHg 52%
14:00 +11°C° 0 mm 4 m/s 753 mmHg 55%
15:00 +11°C° 0 mm 3 m/s 753 mmHg 58%
16:00 +11°C° 0 mm 3 m/s 752 mmHg 61%
17:00 +9°C° 0 mm 2 m/s 753 mmHg 67%
18:00 +7°C° 0 mm 2 m/s 753 mmHg 73%
19:00 +7°C° 0 mm 1 m/s 753 mmHg 79%
20:00 +6°C° 0 mm 1 m/s 753 mmHg 81%
21:00 +6°C° 0 mm 1 m/s 753 mmHg 83%
22:00 +5°C° 0 mm 1 m/s 754 mmHg 85%
23:00 +5°C° 0 mm 1 m/s 754 mmHg 86%

28 Julho, Quarta-feira

Tempo Temperatura Precipitação Vento Pressão Humidade
00:00 +5°C° 0 mm 1 m/s 754 mmHg 88%
01:00 +4°C° 0 mm 1 m/s 754 mmHg 89%
02:00 +4°C° 0 mm 1 m/s 753 mmHg 88%
03:00 +4°C° 0 mm 1 m/s 753 mmHg 87%
04:00 +2°C° 0 mm 2 m/s 753 mmHg 86%
05:00 +3°C° 0 mm 1 m/s 753 mmHg 84%
06:00 +3°C° 0 mm 1 m/s 753 mmHg 82%
07:00 +3°C° 0 mm 1 m/s 753 mmHg 80%
08:00 +5°C° 0 mm 1 m/s 753 mmHg 70%
09:00 +8°C° 0 mm 1 m/s 753 mmHg 60%
10:00 +10°C° 0 mm 1 m/s 753 mmHg 50%
11:00 +12°C° 0 mm 2 m/s 752 mmHg 47%
12:00 +14°C° 0 mm 2 m/s 751 mmHg 45%
13:00 +15°C° 0 mm 2 m/s 751 mmHg 42%
14:00 +15°C° 0 mm 2 m/s 750 mmHg 47%
15:00 +14°C° 0 mm 2 m/s 750 mmHg 52%
16:00 +14°C° 0 mm 1 m/s 750 mmHg 57%
17:00 +12°C° 0 mm 1 m/s 750 mmHg 60%
18:00 +10°C° 0 mm 1 m/s 750 mmHg 64%
19:00 +9°C° 0 mm 1 m/s 750 mmHg 67%
20:00 +8°C° 0 mm 1 m/s 750 mmHg 70%
21:00 +8°C° 0 mm 1 m/s 750 mmHg 73%
22:00 +7°C° 0 mm 1 m/s 750 mmHg 76%
23:00 +7°C° 0 mm 1 m/s 749 mmHg 78%

29 Julho, Quinta-feira

Tempo Temperatura Precipitação Vento Pressão Humidade
00:00 +7°C° 0 mm 1 m/s 749 mmHg 80%
01:00 +6°C° 0 mm 1 m/s 749 mmHg 81%
02:00 +6°C° 0 mm 1 m/s 749 mmHg 82%
03:00 +6°C° 0 mm 1 m/s 748 mmHg 82%
04:00 +5°C° 0 mm 1 m/s 748 mmHg 82%
05:00 +5°C° 0 mm 1 m/s 748 mmHg 81%
06:00 +5°C° 0 mm 1 m/s 748 mmHg 80%
07:00 +5°C° 0 mm 1 m/s 749 mmHg 79%
08:00 +8°C° 0 mm 1 m/s 749 mmHg 69%
09:00 +10°C° 0 mm 1 m/s 749 mmHg 59%
10:00 +13°C° 0 mm 1 m/s 749 mmHg 49%
11:00 +14°C° 0 mm 1 m/s 749 mmHg 45%
12:00 +16°C° 0 mm 1 m/s 748 mmHg 41%
13:00 +19°C° 0 mm 1 m/s 748 mmHg 36%
14:00 +16°C° 0 mm 0 m/s 748 mmHg 42%
15:00 +16°C° 0 mm 0 m/s 748 mmHg 47%
16:00 +15°C° 0 mm 0 m/s 748 mmHg 53%
17:00 +13°C° 0 mm 0 m/s 748 mmHg 57%
18:00 +11°C° 0 mm 0 m/s 748 mmHg 62%
19:00 +9°C° 0 mm 0 m/s 749 mmHg 66%
20:00 +9°C° 0 mm 0 m/s 749 mmHg 67%
21:00 +8°C° 0 mm 0 m/s 749 mmHg 69%
22:00 +8°C° 0 mm 0 m/s 749 mmHg 70%
23:00 +7°C° 0 mm 0 m/s 749 mmHg 70%

30 Julho, Sexta-feira

Tempo Temperatura Precipitação Vento Pressão Humidade
00:00 +7°C° 0 mm 0 m/s 749 mmHg 70%
01:00 +7°C° 0 mm 0 m/s 748 mmHg 70%
02:00 +6°C° 0 mm 0 m/s 749 mmHg 71%
03:00 +6°C° 0 mm 0 m/s 749 mmHg 72%
04:00 +6°C° 0 mm 0 m/s 749 mmHg 72%
05:00 +6°C° 0 mm 0 m/s 749 mmHg 72%
06:00 +5°C° 0 mm 0 m/s 750 mmHg 72%
07:00 +6°C° 0 mm 1 m/s 750 mmHg 72%
08:00 +8°C° 0 mm 1 m/s 750 mmHg 66%
09:00 +11°C° 0 mm 1 m/s 751 mmHg 61%
10:00 +13°C° 0 mm 1 m/s 751 mmHg 55%
11:00 +14°C° 0 mm 1 m/s 751 mmHg 54%
12:00 +15°C° 0 mm 1 m/s 751 mmHg 53%
13:00 +16°C° 0 mm 2 m/s 751 mmHg 52%
14:00 +15°C° 0 mm 2 m/s 751 mmHg 58%
15:00 +13°C° 0 mm 3 m/s 751 mmHg 65%
16:00 +12°C° 0 mm 3 m/s 752 mmHg 71%
17:00 +11°C° 0 mm 3 m/s 752 mmHg 76%
18:00 +10°C° 0 mm 2 m/s 753 mmHg 81%
19:00 +9°C° 0 mm 2 m/s 753 mmHg 87%
20:00 +8°C° 0 mm 2 m/s 753 mmHg 88%
21:00 +8°C° 0 mm 2 m/s 754 mmHg 90%
22:00 +8°C° 0 mm 3 m/s 754 mmHg 92%
23:00 +7°C° 0 mm 2 m/s 754 mmHg 93%
Mostrar mais

Necessitamos do seu Consentimento

A Meteoprog e os seus Fornecedores de Serviços podem armazenar e aceder a dados pessoais como cookies, identificadores do dispositivo ou outras tecnologias semelhantes existentes no seu dispositivo e processar estes dados para personalizar conteúdos e anúncios, assim como funcionalidades nas redes sociais e análise de tráfego.

  • Armazenar e/ou aceder a informações no seu dispositivo

    Os cookies, identificadores do dispositivo ou outras informações podem ser armazenados ou acedidos no seu dispositivo, para os fins acima indicados.

  • Anúncios e conteúdos personalizados, medição de anúncios e conteúdos, dados sobre o público-alvo e desenvolvimento de produtos

    Os anúncios e os conteúdos podem ser personalizados com base num perfil. Podem ser adicionados dados adicionais para uma maior personalização dos anúncios e dos conteúdos. A eficácia dos anúncios e dos conteúdos pode ser medida. Podem ser obtidas informações sobre o público que visualizou os anúncios e os conteúdos. Estes dados podem ser usados para desenvolver ou melhorar sistemas, softwares ou a experiência do utilizador.

Ao clicar em "Eu concordo”, permitirá o uso de cookies, identificadores do dispositivo e web beacons mencionados ou outras tecnologias semelhantes. As configurações do navegador do seu dispositivo podem ser alteradas.

Para certos fins, podem ser invocados interesses legítimos ao invés de consentimento. Pode ler mais informação sobre este assunto na nossa Política de Privacidade e Cookies.